QPF
0.00 0.00 0.00 0.00 0.00 0.00 0.00 0.00 0.00 0.00 0.00 0.00 0.00 0.00 0.00 0.00 0.00 0.00 0.00 0.00 0.00 0.00 0.00 0.00 0.00 0.00 0.00 0.00 0.00 0.00 0.00 0.00 0.00 0.00 0.00 0.00 0.00 0.00 0.00 0.00 0.00 0.00 0.00 0.00 0.00 0.00 0.00 0.00 0.00 0.00 0.00 0.00
0.00 0.00 0.00 0.00 0.00 0.00 0.00 0.00 0.00 0.00 0.00 0.00 0.00 0.00 0.00 0.00 0.00 0.00 0.00 0.00 0.00 0.00 0.00 0.00 0.00 0.00 0.00 0.00 0.00 0.00 0.00 0.00 0.00 0.00 0.00 0.00 0.00 0.00 0.00 0.00 0.00 0.00 0.00 0.00 0.00 0.00 0.00 0.00 0.00 0.00 0.00 0.00
0.00 0.00 0.00 0.00 0.00 0.00 0.00 0.00 0.00 0.00 0.00 0.00 0.00 0.00 0.00 0.00 0.00 0.00 0.00 0.00 0.00 0.00 0.00 0.00 0.00 0.00 0.00 0.00 0.00 0.00 0.00 0.00 0.00 0.00 0.00 0.00 0.00 0.00 0.00 0.00 0.00 0.00 0.00 0.00 0.00 0.00 0.00 0.00 0.00 0.00 0.00 0.00
0.00 0.00 0.00 0.00 0.00 0.00 0.00 0.00 0.00 0.00 0.00 0.00 0.00 0.00 0.00 0.00 0.00 0.00 0.00 0.00 0.00 0.00 0.00 0.00 0.00 0.00 0.00 0.00 0.00 0.00 0.00 0.00 0.00 0.00 0.00 0.00 0.00 0.00 0.00 0.00 0.00 0.00 0.00 0.00 0.00 0.00 0.00 0.00 0.00 0.00 0.00 0.00
0.00 0.00 0.00 0.00 0.00 0.00 0.00 0.00 0.00 0.00 0.00 0.00 0.00 0.00 0.00 0.00 0.00 0.00 0.00 0.00 0.00 0.00 0.00 0.00 0.00 0.00 0.00 0.00 0.00 0.00 0.00 0.00 0.00 0.00 0.00 0.00 0.00 0.00 0.00 0.00 0.00 0.00 0.00 0.00 0.00 0.00 0.00 0.00 0.00 0.00 0.00 0.00
0.00 0.00 0.00 0.00 0.00 0.00 0.00 0.00 0.00 0.00 0.00 0.00 0.00 0.00 0.00 0.00 0.00 0.00 0.00 0.00 0.00 0.00 0.00 0.00 0.00 0.00 0.00 0.00 0.00 0.00 0.00 0.00 0.00 0.00 0.00 0.00 0.00 0.00 0.00 0.00 0.00 0.00 0.00 0.00 0.00 0.00 0.00 0.00 0.00 0.00 0.00 0.00
0.00 0.00 0.00 0.00 0.00 0.00 0.00 0.00 0.00 0.00 0.00 0.00 0.00 0.00 0.00 0.00 0.00 0.00 0.00 0.00 0.00 0.00 0.00 0.00 0.00 0.00 0.00 0.00 0.00 0.00 0.00 0.00 0.00 0.00 0.00 0.00 0.00 0.00 0.00 0.00 0.00 0.00 0.00 0.00 0.00 0.00 0.00 0.00 0.00 0.00 0.00 0.00
0.00 0.00 0.00 0.00 0.00 0.00 0.00 0.00 0.00 0.00 0.00 0.00 0.00 0.00 0.00 0.00 0.00 0.00 0.00 0.00 0.00 0.00 0.00 0.00 0.00 0.00 0.00 0.00 0.00 0.00 0.00 0.00 0.00 0.00 0.00 0.00 0.00 0.00 0.00 0.00 0.00 0.00 0.00 0.00 0.00 0.00 0.00 0.00 0.00 0.00 0.00 0.00
0.00 0.00 0.00 0.00 0.00 0.00 0.00 0.00 0.00 0.00 0.00 0.00 0.00 0.00 0.00 0.00 0.00 0.00 0.00 0.00 0.00 0.00 0.00 0.00 0.00 0.00 0.00 0.00 0.00 0.00 0.00 0.00 0.00 0.00 0.00 0.00 0.00 0.00 0.00 0.00 0.00 0.00 0.00 0.00 0.00 0.00 0.00 0.00 0.00 0.00 0.00 0.00
0.00 0.00 0.00 0.00 0.00 0.00 0.00 0.00 0.00 0.00 0.00 0.00 0.00 0.00 0.00 0.00 0.00 0.00 0.00 0.00 0.00 0.00 0.00 0.00 0.00 0.00 0.00 0.00 0.00 0.00 0.00 0.00 0.00 0.00 0.00 0.00 0.00 0.00 0.00 0.00 0.00 0.00 0.00 0.00 0.00 0.00 0.00 0.00 0.00 0.00 0.00 0.00
0.00 0.00 0.00 0.00 0.00 0.00 0.00 0.00 0.00 0.00 0.00 0.00 0.00 0.00 0.00 0.00 0.00 0.00 0.00 0.00 0.00 0.00 0.00 0.00 0.00 0.00 0.00 0.00 0.00 0.00 0.00 0.00 0.00 0.00 0.00 0.00 0.00 0.00 0.00 0.00 0.00 0.00 0.00 0.00 0.00 0.00 0.00 0.00 0.00 0.00 0.00 0.00
0.00 0.00 0.00 0.00 0.00 0.00 0.00 0.00 0.00 0.00 0.00 0.00 0.00 0.00 0.00 0.00 0.00 0.00 0.00 0.00 0.00 0.00 0.00 0.00 0.00 0.00 0.00 0.00 0.00 0.00 0.00 0.00 0.00 0.00 0.00 0.00 0.00 0.00 0.00 0.00 0.00 0.00 0.00 0.00 0.00 0.00 0.00 0.00 0.00 0.00 0.00 0.00
0.00 0.00 0.00 0.00 0.00 0.00 0.00 0.00 0.00 0.00 0.00 0.00 0.00 0.00 0.00 0.00 0.00 0.00 0.00 0.00 0.00 0.00 0.00 0.00 0.00 0.00 0.00 0.00 0.00 0.00 0.00 0.00 0.00 0.00 0.00 0.00 0.00 0.00 0.00 0.00 0.00 0.00 0.00 0.00 0.00 0.00 0.00 0.00 0.00 0.00 0.00 0.00
0.00 0.00 0.00 0.00 0.00 0.00 0.00 0.00 0.00 0.00 0.00 0.00 0.00 0.00 0.00 0.00 0.00 0.00 0.00 0.00 0.00 0.00 0.00 0.00 0.00 0.00 0.00 0.00 0.00 0.00 0.00 0.00 0.00 0.00 0.00 0.00 0.00 0.00 0.00 0.00 0.00 0.00 0.00 0.00 0.00 0.00 0.00 0.00 0.00 0.00 0.00 0.00
0.00 0.00 0.00 0.00 0.00 0.00 0.00 0.00 0.00 0.00 0.00 0.00 0.00 0.00 0.00 0.00 0.00 0.00 0.00 0.00 0.00 0.00 0.00 0.00 0.00 0.00 0.00 0.00 0.00 0.00 0.00 0.00 0.00 0.00 0.00 0.00 0.00 0.00 0.00 0.00 0.00 0.00 0.00 0.00 0.00 0.00 0.00 0.00 0.00 0.00 0.00 0.00
0.00 0.00 0.00 0.00 0.00 0.00 0.00 0.00 0.00 0.00 0.00 0.00 0.00 0.00 0.00 0.00 0.00 0.00 0.00 0.00 0.00 0.00 0.00 0.00 0.00 0.00 0.00 0.00 0.00 0.00 0.00 0.00 0.00 0.00 0.00 0.00 0.00 0.00 0.00 0.00 0.00 0.00 0.00 0.00 0.00 0.00 0.00 0.00 0.00 0.00 0.00 0.00
0.00 0.00 0.00 0.00 0.00 0.00 0.00 0.00 0.00 0.00 0.00 0.00 0.00 0.00 0.00 0.00 0.00 0.00 0.00 0.00 0.00 0.00 0.00 0.00 0.00 0.00 0.00 0.00 0.00 0.00 0.00 0.00 0.00 0.00 0.00 0.00 0.00 0.00 0.00 0.00 0.00 0.00 0.00 0.00 0.00 0.00 0.00 0.00 0.00 0.00 0.00 0.00
0.00 0.00 0.00 0.00 0.00 0.00 0.00 0.00 0.00 0.00 0.00 0.00 0.00 0.00 0.00 0.00 0.00 0.00 0.00 0.00 0.00 0.00 0.00 0.00 0.00 0.00 0.00 0.00 0.00 0.00 0.00 0.00 0.00 0.00 0.00 0.00 0.00 0.00 0.00 0.00 0.00 0.00 0.00 0.00 0.00 0.00 0.00 0.00 0.00 0.00 0.00 0.00
0.00 0.00 0.00 0.00 0.00 0.00 0.00 0.00 0.00 0.00 0.00 0.00 0.00 0.00 0.00 0.00 0.00 0.00 0.00 0.00 0.00 0.00 0.00 0.00 0.00 0.00 0.00 0.00 0.00 0.00 0.00 0.00 0.00 0.00 0.00 0.00 0.00 0.00 0.00 0.00 0.00 0.00 0.00 0.00 0.00 0.00 0.00 0.00 0.00 0.00 0.00 0.00
0.00 0.00 0.00 0.00 0.00 0.00 0.00 0.00 0.00 0.00 0.00 0.00 0.00 0.00 0.00 0.00 0.00 0.00 0.00 0.00 0.00 0.00 0.00 0.00 0.00 0.00 0.00 0.00 0.00 0.00 0.00 0.00 0.00 0.00 0.00 0.00 0.00 0.00 0.00 0.00 0.00 0.00 0.00 0.00 0.00 0.00 0.00 0.00 0.00 0.00 0.00 0.00
0.00 0.00 0.00 0.00 0.00 0.00 0.00 0.00 0.00 0.00 0.00 0.00 0.00 0.00 0.00 0.00 0.00 0.00 0.00 0.00 0.00 0.00 0.00 0.00 0.00 0.00 0.00 0.00 0.00 0.00 0.00 0.00 0.00 0.00 0.00 0.00 0.00 0.00 0.00 0.00 0.00 0.00 0.00 0.00 0.00 0.00 0.00 0.00 0.00 0.00 0.00 0.00
0.00 0.00 0.00 0.00 0.00 0.00 0.00 0.00 0.00 0.00 0.00 0.00 0.00 0.00 0.00 0.00 0.00 0.00 0.00 0.00 0.00 0.00 0.00 0.00 0.00 0.00 0.00 0.00 0.00 0.00 0.00 0.00 0.00 0.00 0.00 0.00 0.00 0.00 0.00 0.00 0.00 0.00 0.00 0.00 0.00 0.00 0.00 0.00 0.00 0.00 0.00 0.00
0.00 0.00 0.00 0.00 0.00 0.00 0.00 0.00 0.00 0.00 0.00 0.00 0.00 0.00 0.00 0.00 0.00 0.00 0.00 0.00 0.00 0.00 0.00 0.00 0.00 0.00 0.00 0.00 0.00 0.00 0.00 0.00 0.00 0.00 0.00 0.00 0.00 0.00 0.00 0.00 0.00 0.00 0.00 0.00 0.00 0.00 0.00 0.00 0.00 0.00 0.00 0.00
0.00 0.00 0.00 0.00 0.00 0.00 0.00 0.00 0.00 0.00 0.00 0.00 0.00 0.00 0.00 0.00 0.00 0.00 0.00 0.00 0.00 0.00 0.00 0.00 0.00 0.00 0.00 0.00 0.00 0.00 0.00 0.00 0.00 0.00 0.00 0.00 0.00 0.00 0.00 0.00 0.00 0.00 0.00 0.00 0.00 0.00 0.00 0.00 0.00 0.00 0.00 0.00
0.00 0.00 0.00 0.00 0.00 0.00 0.00 0.00 0.00 0.00 0.00 0.00 0.00 0.00 0.00 0.00 0.00 0.00 0.00 0.00 0.00 0.00 0.00 0.00 0.00 0.00 0.00 0.00 0.00 0.00 0.00 0.00 0.00 0.00 0.00 0.00 0.00 0.00 0.00 0.00 0.00 0.00 0.00 0.00 0.00 0.00 0.00 0.00 0.00 0.00 0.00 0.00
0.00 0.00 0.00 0.00 0.00 0.00 0.00 0.00 0.00 0.00 0.00 0.00 0.00 0.00 0.00 0.00 0.00 0.00 0.00 0.00 0.00 0.00 0.00 0.00 0.00 0.00 0.00 0.00 0.00 0.00 0.00 0.00 0.00 0.00 0.00 0.00 0.00 0.00 0.00 0.00 0.00 0.00 0.00 0.00 0.00 0.00 0.00 0.00 0.00 0.00 0.00 0.00
0.00 0.00 0.00 0.00 0.00 0.00 0.00 0.00 0.00 0.00 0.00 0.00 0.00 0.00 0.00 0.00 0.00 0.00 0.00 0.00 0.00 0.00 0.00 0.00 0.00 0.00 0.00 0.00 0.00 0.00 0.00 0.00 0.00 0.00 0.00 0.00 0.00 0.00 0.00 0.00 0.00 0.00 0.00 0.00 0.00 0.00 0.00 0.00 0.00 0.00 0.00 0.00
0.00 0.00 0.00 0.00 0.00 0.00 0.00 0.00 0.00 0.00 0.00 0.00 0.00 0.00 0.00 0.00 0.00 0.00 0.00 0.00 0.00 0.00 0.00 0.00 0.00 0.00 0.00 0.00 0.00 0.00 0.00 0.00 0.00 0.00 0.00 0.00 0.00 0.00 0.00 0.00 0.00 0.00 0.00 0.00 0.00 0.00 0.00 0.00 0.00 0.00 0.00 0.00
0.00 0.00 0.00 0.00 0.00 0.00 0.00 0.00 0.00 0.00 0.00 0.00 0.00 0.00 0.00 0.00 0.00 0.00 0.00 0.00 0.00 0.00 0.00 0.00 0.00 0.00 0.00 0.00 0.00 0.00 0.00 0.00 0.00 0.00 0.00 0.00 0.00 0.00 0.00 0.00 0.00 0.00 0.00 0.00 0.00 0.00 0.00 0.00 0.00 0.00 0.00 0.00
0.00 0.00 0.00 0.00 0.00 0.00 0.00 0.00 0.00 0.00 0.00 0.00 0.00 0.00 0.00 0.00 0.00 0.00 0.00 0.00 0.00 0.00 0.00 0.00 0.00 0.00 0.00 0.00 0.00 0.00 0.00 0.00 0.00 0.00 0.00 0.00 0.00 0.00 0.00 0.00 0.00 0.00 0.00 0.00 0.00 0.00 0.00 0.00 0.00 0.00 0.00 0.00
0.00 0.00 0.00 0.00 0.00 0.00 0.00 0.00 0.00 0.00 0.00 0.00 0.00 0.00 0.00 0.00 0.00 0.00 0.00 0.00 0.00 0.00 0.00 0.00 0.00 0.00 0.00 0.00 0.00 0.00 0.00 0.00 0.00 0.00 0.00 0.00 0.00 0.00 0.00 0.00 0.00 0.00 0.00 0.00 0.00 0.00 0.00 0.00 0.00 0.00 0.00 0.00
MSLP
1027.08 1027.16 1027.28 1027.48 1027.72 1027.92 1028.16 1028.32 1028.44 1028.60 1028.76 1028.92 1029.04 1029.16 1029.28 1029.36 1029.44 1029.48 1029.48 1029.48 1029.48 1029.52 1029.52 1029.48 1029.40 1029.36 1029.36 1029.36 1029.32 1029.28 1029.24 1029.20 1029.20 1029.20 1029.20 1029.16 1029.16 1029.08 1029.04 1029.04 1029.08 1029.04 1029.00 1028.96 1028.96 1028.88 1028.84 1028.76 1028.64 1028.44 1028.40 1028.44
1027.36 1027.40 1027.60 1027.76 1027.96 1028.16 1028.36 1028.52 1028.68 1028.80 1028.96 1029.12 1029.24 1029.40 1029.52 1029.64 1029.68 1029.68 1029.72 1029.72 1029.76 1029.76 1029.80 1029.80 1029.68 1029.60 1029.56 1029.56 1029.56 1029.52 1029.48 1029.40 1029.36 1029.32 1029.32 1029.28 1029.28 1029.24 1029.20 1029.16 1029.16 1029.16 1029.12 1029.08 1029.04 1029.00 1028.92 1028.80 1028.68 1028.64 1028.60 1028.60
1027.64 1027.68 1027.88 1028.00 1028.16 1028.40 1028.60 1028.76 1028.88 1029.04 1029.20 1029.36 1029.48 1029.60 1029.72 1029.80 1029.88 1029.92 1029.96 1030.00 1030.00 1030.04 1030.08 1030.08 1030.04 1029.84 1029.76 1029.76 1029.76 1029.76 1029.72 1029.64 1029.56 1029.48 1029.48 1029.40 1029.40 1029.40 1029.36 1029.28 1029.24 1029.24 1029.20 1029.20 1029.16 1029.12 1028.96 1028.88 1028.92 1028.92 1028.88 1028.76
1027.92 1028.04 1028.08 1028.16 1028.36 1028.60 1028.76 1028.92 1029.08 1029.20 1029.36 1029.48 1029.64 1029.68 1029.72 1029.80 1029.96 1030.08 1030.12 1030.16 1030.28 1030.28 1030.32 1030.32 1030.28 1030.12 1030.00 1029.96 1029.96 1030.00 1030.00 1029.88 1029.76 1029.72 1029.64 1029.56 1029.52 1029.52 1029.48 1029.44 1029.40 1029.44 1029.32 1029.28 1029.28 1029.20 1029.16 1029.08 1029.16 1029.20 1029.12 1028.96
1028.12 1028.28 1028.20 1028.40 1028.60 1028.76 1028.88 1029.04 1029.16 1029.28 1029.44 1029.56 1029.68 1029.72 1029.76 1029.80 1030.00 1030.20 1030.32 1030.36 1030.36 1030.44 1030.52 1030.48 1030.48 1030.36 1030.24 1030.12 1030.08 1030.08 1030.08 1030.04 1029.88 1029.84 1029.80 1029.76 1029.64 1029.64 1029.64 1029.60 1029.68 1029.64 1029.56 1029.48 1029.44 1029.40 1029.44 1029.40 1029.48 1029.40 1029.28 1029.16
1028.24 1028.28 1028.36 1028.56 1028.80 1028.92 1029.04 1029.12 1029.24 1029.36 1029.48 1029.56 1029.68 1029.68 1029.72 1029.84 1030.00 1030.24 1030.40 1030.44 1030.40 1030.48 1030.48 1030.52 1030.48 1030.44 1030.36 1030.28 1030.20 1030.12 1030.12 1030.08 1030.00 1029.92 1029.92 1029.88 1029.80 1029.80 1029.84 1029.88 1029.96 1029.96 1029.88 1029.76 1029.68 1029.64 1029.68 1029.76 1029.76 1029.64 1029.48 1029.36
1028.04 1028.12 1028.32 1028.56 1028.76 1028.92 1029.08 1029.16 1029.28 1029.40 1029.52 1029.64 1029.64 1029.68 1029.76 1029.92 1030.00 1030.16 1030.36 1030.40 1030.40 1030.44 1030.48 1030.48 1030.44 1030.40 1030.32 1030.32 1030.36 1030.28 1030.24 1030.24 1030.20 1030.08 1030.08 1030.08 1030.04 1030.04 1030.12 1030.16 1030.16 1030.16 1030.16 1030.12 1030.00 1029.96 1030.00 1029.96 1029.92 1029.84 1029.68 1029.60
1027.84 1028.04 1028.28 1028.56 1028.72 1028.92 1029.04 1029.16 1029.28 1029.44 1029.56 1029.64 1029.68 1029.72 1029.84 1030.00 1030.04 1030.04 1030.24 1030.32 1030.36 1030.40 1030.44 1030.48 1030.40 1030.36 1030.44 1030.48 1030.48 1030.44 1030.52 1030.52 1030.40 1030.36 1030.36 1030.36 1030.32 1030.36 1030.40 1030.36 1030.36 1030.32 1030.28 1030.28 1030.24 1030.20 1030.24 1030.20 1030.16 1030.04 1029.88 1029.84
1027.68 1027.92 1028.16 1028.36 1028.56 1028.72 1028.92 1029.08 1029.24 1029.44 1029.56 1029.68 1029.72 1029.76 1029.92 1030.00 1030.04 1030.04 1030.16 1030.28 1030.32 1030.32 1030.36 1030.40 1030.48 1030.52 1030.56 1030.60 1030.64 1030.60 1030.72 1030.72 1030.68 1030.60 1030.64 1030.68 1030.60 1030.60 1030.56 1030.52 1030.48 1030.44 1030.40 1030.36 1030.32 1030.32 1030.32 1030.32 1030.32 1030.20 1030.12 1030.04
1027.52 1027.72 1028.00 1028.20 1028.36 1028.56 1028.76 1028.92 1029.12 1029.32 1029.52 1029.64 1029.72 1029.80 1029.84 1029.88 1029.96 1030.00 1030.12 1030.28 1030.36 1030.40 1030.44 1030.52 1030.56 1030.56 1030.64 1030.68 1030.72 1030.72 1030.80 1030.84 1030.76 1030.72 1030.76 1030.80 1030.76 1030.68 1030.68 1030.60 1030.60 1030.60 1030.52 1030.44 1030.40 1030.36 1030.40 1030.40 1030.36 1030.28 1030.20 1030.16
1027.44 1027.64 1027.84 1028.04 1028.24 1028.44 1028.64 1028.80 1028.96 1029.16 1029.36 1029.56 1029.68 1029.72 1029.76 1029.80 1029.88 1029.96 1030.12 1030.24 1030.36 1030.44 1030.52 1030.64 1030.68 1030.64 1030.72 1030.80 1030.84 1030.84 1030.88 1030.92 1030.84 1030.84 1030.84 1030.84 1030.84 1030.76 1030.72 1030.68 1030.68 1030.72 1030.64 1030.56 1030.48 1030.48 1030.48 1030.48 1030.44 1030.32 1030.24 1030.16
1027.40 1027.52 1027.72 1027.96 1028.08 1028.32 1028.48 1028.68 1028.88 1029.08 1029.28 1029.52 1029.64 1029.68 1029.76 1029.80 1029.88 1029.96 1030.12 1030.24 1030.36 1030.44 1030.56 1030.68 1030.72 1030.72 1030.80 1030.84 1030.92 1030.92 1030.92 1031.00 1030.96 1030.92 1030.92 1030.96 1030.96 1030.88 1030.80 1030.72 1030.72 1030.76 1030.68 1030.64 1030.60 1030.56 1030.60 1030.56 1030.52 1030.40 1030.32 1030.20
1027.20 1027.44 1027.72 1027.96 1028.08 1028.24 1028.40 1028.56 1028.76 1029.00 1029.24 1029.40 1029.56 1029.72 1029.80 1029.84 1029.88 1029.96 1030.08 1030.28 1030.32 1030.44 1030.60 1030.68 1030.72 1030.76 1030.84 1030.92 1030.96 1031.00 1031.04 1031.04 1031.00 1030.96 1030.96 1031.04 1031.00 1030.96 1030.88 1030.80 1030.76 1030.76 1030.76 1030.68 1030.64 1030.60 1030.64 1030.64 1030.56 1030.44 1030.36 1030.28
1027.12 1027.36 1027.68 1027.88 1027.96 1028.20 1028.36 1028.52 1028.72 1028.96 1029.12 1029.24 1029.48 1029.72 1029.80 1029.88 1029.92 1030.00 1030.08 1030.24 1030.32 1030.44 1030.60 1030.68 1030.76 1030.80 1030.88 1031.00 1031.04 1031.12 1031.16 1031.12 1031.08 1031.04 1031.04 1031.04 1031.04 1031.00 1030.92 1030.80 1030.76 1030.76 1030.76 1030.72 1030.64 1030.64 1030.68 1030.68 1030.64 1030.52 1030.40 1030.28
1026.96 1027.24 1027.48 1027.68 1027.88 1028.16 1028.32 1028.44 1028.68 1028.84 1028.92 1029.12 1029.36 1029.60 1029.76 1029.92 1029.96 1030.04 1030.16 1030.28 1030.40 1030.44 1030.56 1030.72 1030.84 1030.96 1031.00 1031.08 1031.16 1031.24 1031.32 1031.24 1031.16 1031.08 1031.08 1031.08 1031.04 1030.96 1030.88 1030.80 1030.72 1030.72 1030.76 1030.68 1030.64 1030.64 1030.68 1030.68 1030.64 1030.56 1030.44 1030.32
1026.80 1027.04 1027.28 1027.52 1027.80 1028.04 1028.16 1028.36 1028.56 1028.64 1028.80 1029.04 1029.32 1029.56 1029.72 1029.84 1029.96 1030.00 1030.20 1030.32 1030.44 1030.52 1030.60 1030.76 1030.92 1031.04 1031.12 1031.24 1031.32 1031.36 1031.44 1031.40 1031.24 1031.16 1031.16 1031.12 1031.04 1030.96 1030.88 1030.80 1030.76 1030.72 1030.76 1030.72 1030.68 1030.68 1030.72 1030.68 1030.64 1030.52 1030.44 1030.36
1026.60 1026.84 1027.08 1027.36 1027.60 1027.76 1027.96 1028.20 1028.32 1028.48 1028.72 1028.96 1029.28 1029.52 1029.68 1029.76 1029.92 1030.00 1030.16 1030.36 1030.44 1030.48 1030.60 1030.80 1030.96 1031.00 1031.16 1031.32 1031.40 1031.40 1031.40 1031.36 1031.28 1031.28 1031.36 1031.28 1031.16 1031.12 1030.96 1030.88 1030.88 1030.84 1030.80 1030.76 1030.72 1030.72 1030.72 1030.68 1030.60 1030.52 1030.40 1030.36
1026.44 1026.68 1026.96 1027.20 1027.40 1027.60 1027.84 1028.04 1028.16 1028.32 1028.56 1028.84 1029.20 1029.44 1029.60 1029.72 1029.80 1029.88 1030.00 1030.20 1030.36 1030.44 1030.60 1030.80 1030.92 1031.04 1031.16 1031.32 1031.36 1031.36 1031.40 1031.44 1031.32 1031.44 1031.48 1031.44 1031.44 1031.32 1031.24 1031.12 1031.04 1030.96 1030.92 1030.80 1030.76 1030.76 1030.72 1030.68 1030.64 1030.48 1030.40 1030.32
1026.24 1026.52 1026.84 1027.04 1027.24 1027.48 1027.72 1027.84 1028.00 1028.16 1028.44 1028.72 1029.04 1029.32 1029.52 1029.64 1029.72 1029.80 1029.92 1030.08 1030.28 1030.36 1030.48 1030.72 1030.88 1031.00 1031.16 1031.28 1031.32 1031.36 1031.44 1031.48 1031.40 1031.52 1031.64 1031.56 1031.64 1031.56 1031.48 1031.36 1031.28 1031.12 1031.04 1030.92 1030.88 1030.84 1030.76 1030.72 1030.60 1030.48 1030.36 1030.24
1026.04 1026.32 1026.64 1026.88 1027.04 1027.36 1027.56 1027.68 1027.84 1028.04 1028.28 1028.52 1028.80 1029.12 1029.36 1029.52 1029.64 1029.76 1029.88 1030.00 1030.12 1030.28 1030.36 1030.52 1030.76 1030.96 1031.16 1031.28 1031.32 1031.36 1031.44 1031.48 1031.48 1031.60 1031.72 1031.60 1031.60 1031.72 1031.68 1031.56 1031.44 1031.24 1031.20 1031.12 1031.08 1031.00 1030.88 1030.72 1030.60 1030.44 1030.28 1030.16
1025.84 1026.12 1026.40 1026.64 1026.84 1027.08 1027.36 1027.44 1027.60 1027.84 1028.08 1028.32 1028.56 1028.84 1029.12 1029.32 1029.52 1029.68 1029.80 1029.92 1030.04 1030.16 1030.24 1030.40 1030.60 1030.88 1031.08 1031.20 1031.24 1031.32 1031.40 1031.44 1031.48 1031.68 1031.68 1031.72 1031.64 1031.64 1031.80 1031.64 1031.52 1031.40 1031.36 1031.32 1031.28 1031.16 1030.96 1030.72 1030.56 1030.40 1030.24 1030.04
1025.64 1025.88 1026.16 1026.40 1026.64 1026.84 1027.12 1027.24 1027.40 1027.60 1027.80 1028.04 1028.28 1028.52 1028.84 1029.08 1029.28 1029.48 1029.64 1029.80 1029.92 1030.00 1030.12 1030.28 1030.48 1030.76 1030.96 1031.08 1031.20 1031.28 1031.32 1031.40 1031.48 1031.64 1031.68 1031.80 1031.72 1031.72 1031.76 1031.72 1031.60 1031.56 1031.44 1031.40 1031.32 1031.20 1030.96 1030.68 1030.40 1030.16 1030.04 1029.92
1025.52 1025.76 1025.96 1026.16 1026.40 1026.64 1026.88 1027.08 1027.16 1027.32 1027.56 1027.76 1027.96 1028.16 1028.44 1028.76 1029.04 1029.24 1029.44 1029.60 1029.72 1029.84 1029.96 1030.12 1030.32 1030.60 1030.80 1030.92 1031.00 1031.12 1031.24 1031.32 1031.44 1031.60 1031.68 1031.84 1031.84 1031.72 1031.72 1031.72 1031.60 1031.48 1031.44 1031.48 1031.36 1031.12 1030.76 1030.48 1030.12 1029.80 1029.68 1029.64
1025.36 1025.60 1025.76 1025.96 1026.20 1026.48 1026.64 1026.80 1026.92 1027.04 1027.24 1027.44 1027.64 1027.80 1028.12 1028.44 1028.72 1028.92 1029.12 1029.32 1029.44 1029.60 1029.76 1029.96 1030.12 1030.36 1030.60 1030.72 1030.80 1030.92 1031.04 1031.08 1031.28 1031.52 1031.64 1031.72 1031.72 1031.80 1031.68 1031.52 1031.48 1031.44 1031.56 1031.52 1031.36 1031.00 1030.48 1030.04 1029.68 1029.56 1029.44 1029.36
1025.00 1025.28 1025.60 1025.76 1025.84 1026.00 1026.24 1026.40 1026.56 1026.76 1026.92 1027.12 1027.24 1027.44 1027.76 1028.08 1028.32 1028.56 1028.84 1029.00 1029.16 1029.28 1029.44 1029.68 1029.92 1030.16 1030.40 1030.52 1030.60 1030.68 1030.76 1030.88 1031.16 1031.36 1031.52 1031.60 1031.56 1031.64 1031.60 1031.52 1031.36 1031.56 1031.52 1031.64 1031.24 1030.60 1030.48 1030.12 1029.52 1029.32 1029.04 1029.00
1024.44 1024.60 1024.68 1024.88 1025.16 1025.48 1025.76 1026.00 1026.20 1026.40 1026.56 1026.72 1026.92 1027.16 1027.40 1027.68 1027.92 1028.16 1028.44 1028.64 1028.80 1028.96 1029.08 1029.32 1029.60 1029.88 1030.12 1030.28 1030.36 1030.44 1030.56 1030.84 1031.08 1031.24 1031.40 1031.44 1031.56 1031.32 1031.44 1031.52 1031.32 1031.52 1031.56 1031.60 1031.56 1031.60 1031.08 1030.36 1029.40 1028.84 1028.72 1028.80
1023.84 1024.12 1024.40 1024.56 1024.76 1025.00 1025.32 1025.40 1025.56 1025.80 1026.04 1026.36 1026.60 1026.76 1027.00 1027.28 1027.52 1027.80 1028.04 1028.24 1028.40 1028.56 1028.68 1028.88 1029.20 1029.48 1029.80 1030.00 1030.08 1030.24 1030.44 1030.68 1030.96 1031.12 1031.20 1031.20 1031.24 1031.16 1031.08 1031.32 1031.28 1031.48 1031.48 1032.04 1031.72 1031.60 1031.48 1030.64 1030.00 1029.56 1029.00 1029.20
1023.32 1023.64 1023.96 1024.24 1024.40 1024.64 1024.80 1024.92 1025.16 1025.40 1025.68 1025.96 1026.20 1026.40 1026.64 1026.92 1027.08 1027.28 1027.60 1027.76 1027.96 1028.12 1028.28 1028.48 1028.72 1029.04 1029.36 1029.56 1029.68 1029.88 1030.20 1030.48 1030.68 1030.80 1030.88 1030.96 1030.92 1031.00 1031.28 1030.92 1031.24 1031.48 1031.44 1031.72 1031.88 1031.56 1031.08 1031.48 1030.76 1031.08 1029.48 1030.44
1023.00 1023.44 1023.76 1024.00 1024.28 1024.40 1024.56 1024.68 1024.72 1024.96 1025.20 1025.28 1025.56 1025.92 1026.20 1026.28 1026.56 1026.88 1027.16 1027.36 1027.52 1027.68 1027.88 1028.08 1028.28 1028.52 1028.80 1029.08 1029.28 1029.52 1029.80 1030.04 1030.20 1030.20 1030.36 1030.48 1030.60 1030.64 1030.72 1030.64 1030.80 1031.36 1031.56 1031.60 1031.56 1031.80 1031.88 1031.08 1030.84 1030.24 1031.04 1030.72
1022.52 1022.80 1023.20 1023.64 1023.96 1024.12 1024.08 1024.16 1024.16 1024.00 1024.08 1024.56 1024.84 1024.96 1025.40 1026.00 1026.16 1026.44 1026.72 1026.92 1027.12 1027.32 1027.52 1027.68 1027.84 1028.04 1028.32 1028.64 1028.88 1029.04 1029.20 1029.44 1029.76 1029.84 1029.96 1030.00 1030.16 1030.28 1030.20 1030.48 1030.68 1031.08 1031.16 1031.52 1031.48 1031.52 1031.40 1031.08 1031.16 1031.28 1031.44 1031.36
1021.92 1022.32 1022.56 1022.68 1022.80 1022.96 1023.12 1023.20 1023.08 1023.12 1023.52 1023.88 1024.28 1024.76 1025.08 1025.40 1025.72 1025.92 1026.16 1026.44 1026.64 1026.88 1027.12 1027.32 1027.48 1027.64 1027.84 1028.12 1028.40 1028.56 1028.76 1028.88 1029.04 1029.28 1029.52 1029.72 1029.92 1029.92 1030.00 1030.24 1030.64 1030.72 1030.80 1031.40 1031.52 1031.48 1031.44 1031.40 1031.36 1031.40 1031.76 1032.20
Thickness
5560 5560 5559 5557 5555 5553 5552 5551 5549 5549 5547 5546 5546 5545 5544 5543 5543 5543 5543 5542 5542 5542 5542 5542 5542 5543 5543 5543 5543 5543 5544 5544 5545 5546 5546 5547 5548 5549 5550 5551 5552 5553 5553 5554 5554 5555 5556 5557 5559 5560 5562 5563
5555 5555 5553 5551 5550 5548 5546 5545 5544 5543 5542 5541 5540 5540 5538 5538 5537 5537 5537 5537 5537 5536 5536 5536 5536 5537 5537 5537 5537 5537 5538 5538 5539 5539 5540 5541 5542 5543 5544 5545 5546 5547 5548 5548 5548 5549 5550 5551 5552 5554 5555 5556
5550 5549 5548 5547 5545 5543 5541 5540 5539 5538 5537 5536 5535 5534 5533 5532 5532 5531 5531 5530 5530 5530 5530 5530 5530 5530 5531 5531 5531 5532 5532 5532 5532 5533 5534 5535 5536 5537 5537 5539 5539 5540 5541 5542 5543 5543 5544 5545 5545 5546 5548 5550
5545 5543 5542 5542 5540 5538 5536 5535 5534 5533 5532 5531 5529 5528 5528 5527 5526 5525 5525 5524 5524 5524 5524 5524 5524 5524 5525 5525 5525 5526 5526 5526 5527 5527 5527 5528 5529 5530 5531 5532 5533 5533 5534 5535 5536 5537 5538 5538 5539 5539 5541 5543
5539 5538 5537 5536 5534 5533 5531 5530 5528 5527 5526 5525 5524 5523 5523 5522 5521 5520 5519 5519 5519 5518 5518 5518 5518 5518 5518 5519 5519 5519 5519 5520 5521 5521 5522 5522 5522 5523 5524 5525 5525 5526 5527 5528 5529 5530 5530 5531 5531 5533 5534 5535
5534 5533 5532 5531 5528 5527 5525 5525 5523 5522 5521 5520 5519 5518 5518 5517 5516 5515 5514 5513 5513 5513 5512 5512 5512 5512 5512 5512 5513 5513 5513 5513 5514 5514 5515 5515 5515 5516 5516 5516 5517 5518 5519 5520 5521 5522 5523 5523 5524 5525 5526 5527
5530 5529 5527 5525 5523 5522 5520 5519 5518 5517 5516 5515 5513 5513 5512 5511 5510 5510 5509 5508 5508 5507 5507 5506 5506 5506 5506 5506 5505 5506 5506 5506 5507 5506 5507 5507 5508 5508 5508 5508 5508 5509 5510 5511 5512 5513 5514 5515 5516 5518 5519 5519
5526 5524 5522 5520 5519 5517 5515 5514 5513 5511 5510 5509 5508 5507 5506 5505 5504 5504 5503 5502 5502 5501 5501 5500 5499 5499 5499 5499 5498 5499 5498 5498 5499 5499 5499 5499 5499 5500 5500 5500 5500 5501 5501 5502 5503 5504 5505 5506 5507 5509 5510 5511
5522 5521 5518 5516 5514 5512 5510 5509 5507 5506 5504 5503 5502 5501 5500 5499 5498 5497 5496 5495 5495 5494 5494 5493 5493 5493 5492 5491 5492 5491 5491 5491 5491 5491 5491 5491 5492 5492 5492 5492 5492 5492 5493 5494 5494 5495 5496 5496 5498 5500 5501 5502
5519 5517 5514 5512 5510 5508 5506 5504 5502 5500 5499 5497 5496 5495 5494 5493 5492 5491 5490 5488 5488 5487 5487 5487 5486 5486 5485 5485 5485 5484 5484 5484 5484 5484 5484 5484 5484 5485 5484 5485 5485 5485 5485 5485 5486 5486 5487 5488 5489 5490 5491 5493
5514 5512 5509 5507 5506 5503 5501 5499 5497 5495 5494 5492 5491 5489 5488 5487 5486 5485 5484 5482 5481 5481 5480 5479 5479 5479 5478 5478 5477 5477 5477 5477 5477 5477 5477 5477 5477 5477 5477 5477 5477 5477 5478 5478 5478 5478 5479 5479 5480 5482 5483 5484
5509 5507 5505 5503 5501 5498 5497 5495 5493 5491 5489 5486 5485 5484 5483 5482 5480 5479 5478 5477 5476 5475 5474 5473 5473 5472 5471 5471 5470 5470 5470 5470 5470 5470 5470 5470 5469 5470 5470 5470 5470 5470 5470 5470 5471 5470 5471 5471 5472 5473 5474 5475
5505 5502 5500 5498 5496 5494 5492 5490 5488 5486 5484 5482 5480 5479 5477 5476 5475 5474 5473 5471 5470 5468 5468 5467 5466 5466 5465 5464 5463 5463 5463 5463 5463 5463 5463 5463 5463 5463 5463 5463 5463 5463 5463 5463 5463 5463 5463 5464 5464 5465 5466 5467
5500 5498 5496 5493 5492 5490 5488 5486 5485 5483 5480 5478 5476 5474 5473 5471 5470 5469 5467 5465 5464 5463 5461 5460 5459 5459 5458 5457 5457 5457 5456 5456 5456 5456 5456 5456 5456 5456 5456 5456 5456 5456 5456 5456 5456 5456 5456 5456 5456 5457 5457 5458
5497 5494 5492 5490 5488 5485 5483 5482 5480 5478 5476 5474 5472 5469 5468 5466 5465 5463 5462 5460 5458 5457 5456 5455 5453 5452 5452 5451 5450 5450 5449 5449 5449 5449 5449 5449 5449 5449 5449 5450 5449 5449 5449 5449 5449 5449 5449 5449 5449 5450 5450 5451
5494 5491 5489 5486 5484 5481 5479 5478 5476 5474 5472 5470 5467 5465 5463 5461 5460 5458 5456 5454 5453 5452 5451 5449 5447 5446 5445 5444 5443 5443 5442 5442 5442 5442 5442 5442 5442 5443 5443 5443 5443 5442 5442 5442 5442 5442 5441 5442 5442 5443 5443 5444
5491 5488 5486 5483 5481 5478 5476 5474 5472 5470 5468 5466 5463 5460 5458 5456 5454 5453 5451 5449 5448 5446 5445 5443 5442 5440 5439 5438 5437 5436 5435 5435 5435 5434 5434 5434 5434 5435 5435 5435 5435 5435 5435 5435 5435 5435 5435 5435 5435 5436 5436 5436
5487 5485 5482 5479 5478 5474 5472 5470 5468 5466 5464 5461 5458 5455 5453 5452 5449 5448 5446 5444 5443 5442 5440 5437 5436 5435 5433 5432 5430 5430 5429 5429 5428 5428 5426 5426 5426 5427 5427 5427 5427 5427 5427 5427 5427 5427 5427 5427 5428 5428 5429 5429
5484 5481 5478 5476 5474 5471 5468 5467 5465 5462 5460 5457 5455 5451 5448 5447 5445 5443 5441 5439 5438 5436 5434 5432 5430 5428 5427 5426 5424 5423 5422 5422 5421 5420 5419 5419 5418 5418 5418 5418 5419 5419 5419 5419 5419 5419 5419 5419 5420 5420 5421 5422
5481 5478 5475 5472 5470 5467 5464 5463 5461 5458 5456 5453 5450 5447 5443 5441 5440 5438 5436 5435 5433 5431 5429 5428 5425 5423 5421 5419 5418 5416 5415 5414 5413 5412 5411 5411 5410 5409 5410 5410 5410 5410 5410 5410 5409 5410 5410 5410 5411 5412 5413 5414
5478 5475 5472 5469 5467 5464 5460 5459 5457 5454 5451 5449 5446 5444 5440 5436 5435 5433 5431 5430 5428 5426 5424 5422 5420 5417 5415 5413 5411 5409 5408 5407 5405 5404 5403 5403 5403 5402 5401 5401 5401 5401 5401 5401 5401 5401 5402 5402 5402 5404 5405 5405
5474 5472 5469 5466 5463 5460 5457 5455 5453 5450 5447 5445 5442 5440 5437 5433 5431 5429 5426 5424 5422 5420 5418 5416 5414 5411 5408 5406 5405 5403 5401 5399 5398 5397 5395 5394 5394 5393 5393 5392 5393 5392 5392 5392 5392 5393 5394 5395 5395 5397 5397 5396
5470 5468 5465 5462 5460 5456 5453 5451 5449 5447 5444 5441 5439 5437 5434 5430 5427 5425 5422 5419 5417 5415 5412 5410 5408 5405 5402 5399 5398 5396 5394 5392 5390 5388 5387 5385 5385 5384 5384 5384 5384 5383 5383 5383 5384 5385 5387 5387 5388 5390 5390 5388
5467 5464 5461 5459 5456 5453 5450 5447 5445 5443 5440 5438 5436 5434 5431 5426 5423 5420 5417 5414 5412 5410 5407 5404 5402 5399 5396 5393 5391 5389 5387 5386 5383 5381 5379 5377 5376 5375 5374 5376 5376 5375 5373 5373 5375 5377 5379 5380 5382 5382 5383 5382
5466 5462 5459 5456 5454 5451 5448 5445 5442 5440 5437 5435 5433 5430 5427 5423 5419 5416 5413 5410 5408 5405 5402 5399 5396 5393 5390 5388 5385 5383 5380 5378 5376 5373 5371 5370 5369 5367 5366 5366 5367 5365 5363 5363 5365 5368 5369 5371 5373 5375 5376 5376
5465 5461 5458 5455 5452 5449 5446 5443 5440 5437 5435 5432 5429 5426 5423 5419 5416 5413 5409 5406 5404 5401 5398 5395 5391 5387 5385 5382 5379 5377 5375 5372 5369 5366 5364 5362 5361 5361 5359 5359 5358 5357 5354 5353 5354 5355 5357 5361 5365 5366 5368 5369
5464 5461 5457 5454 5450 5447 5444 5441 5439 5435 5432 5429 5425 5422 5419 5415 5412 5409 5406 5402 5400 5397 5394 5391 5388 5383 5379 5376 5374 5371 5368 5365 5362 5359 5357 5355 5354 5353 5351 5351 5350 5349 5346 5343 5343 5344 5345 5349 5352 5353 5355 5356
5462 5458 5454 5451 5447 5444 5440 5438 5435 5432 5429 5426 5422 5419 5415 5411 5409 5407 5403 5399 5396 5393 5390 5387 5383 5379 5375 5372 5369 5366 5363 5360 5357 5354 5352 5349 5347 5345 5343 5343 5342 5340 5339 5335 5333 5333 5334 5336 5337 5339 5342 5341
5459 5455 5451 5447 5443 5439 5437 5435 5432 5430 5427 5424 5420 5417 5413 5409 5406 5403 5399 5395 5392 5389 5385 5382 5379 5375 5371 5367 5363 5361 5358 5355 5352 5349 5346 5344 5341 5339 5337 5335 5333 5331 5331 5329 5325 5323 5323 5324 5326 5328 5328 5326
5457 5453 5449 5445 5441 5438 5436 5434 5432 5431 5428 5423 5420 5416 5411 5406 5402 5399 5396 5391 5388 5384 5380 5376 5373 5370 5367 5362 5358 5355 5353 5350 5348 5344 5341 5338 5335 5334 5331 5329 5325 5322 5321 5320 5318 5316 5314 5314 5314 5314 5313 5311
5456 5452 5448 5444 5441 5438 5436 5434 5433 5430 5425 5421 5417 5413 5408 5403 5399 5395 5392 5388 5384 5379 5375 5371 5368 5365 5361 5358 5353 5349 5347 5345 5343 5340 5336 5332 5329 5327 5325 5322 5318 5315 5313 5310 5308 5308 5307 5304 5301 5301 5299 5298